Location: Newark
(35.6799°N, 139.7636°E)
Time: 23:55:38
(UTC+00:00)

Courier 1B - Pass Details

Date: 17 December 2019
Orbit: 962 x 1209 km, 28.3° (Epoch: 21 January)

Event Time Altitude Azimuth Distance (km) Brightness Sun altitude
Rises 10:24:45 0° 251° (WSW) 3,740 11.5 -34.7°
Reaches altitude 10° 10:27:28 10° 246° (WSW) 2,822 10.6 -35.3°
Enters shadow 10:32:26 40° 209° (SSW) 1,515 8.6 -36.3°
